Precipitable_Water
0.25 0.25 0.25 0.25 0.25 0.25 0.24 0.24 0.23 0.22 0.22 0.22 0.23 0.23 0.24 0.25 0.25 0.25 0.25 0.25 0.26 0.26 0.27 0.27 0.27 0.27 0.26 0.26 0.25 0.24 0.23 0.21 0.20 0.19 0.18 0.16 0.15 0.13 0.11 0.11 0.12 0.12
0.25 0.25 0.26 0.26 0.26 0.26 0.25 0.25 0.25 0.24 0.23 0.23 0.24 0.24 0.25 0.26 0.26 0.26 0.26 0.26 0.26 0.27 0.27 0.27 0.27 0.27 0.27 0.26 0.26 0.25 0.23 0.22 0.20 0.19 0.18 0.17 0.15 0.13 0.12 0.12 0.12 0.12
0.25 0.25 0.25 0.25 0.25 0.25 0.26 0.26 0.26 0.26 0.25 0.24 0.25 0.25 0.26 0.26 0.26 0.26 0.27 0.27 0.27 0.27 0.27 0.27 0.27 0.28 0.27 0.27 0.26 0.25 0.24 0.22 0.21 0.20 0.18 0.17 0.16 0.13 0.12 0.12 0.12 0.12
0.25 0.25 0.25 0.25 0.25 0.26 0.26 0.27 0.27 0.27 0.27 0.26 0.26 0.26 0.26 0.26 0.26 0.27 0.27 0.28 0.27 0.27 0.27 0.28 0.28 0.28 0.27 0.27 0.26 0.25 0.24 0.23 0.21 0.20 0.19 0.17 0.16 0.14 0.12 0.12 0.12 0.12
0.25 0.25 0.25 0.25 0.25 0.26 0.26 0.26 0.26 0.27 0.27 0.27 0.28 0.28 0.27 0.27 0.26 0.27 0.27 0.28 0.28 0.28 0.27 0.27 0.28 0.27 0.27 0.27 0.26 0.25 0.24 0.23 0.21 0.20 0.18 0.17 0.16 0.14 0.12 0.12 0.12 0.12
0.25 0.26 0.26 0.26 0.25 0.25 0.26 0.25 0.26 0.26 0.27 0.27 0.27 0.28 0.28 0.28 0.28 0.27 0.28 0.28 0.28 0.28 0.28 0.28 0.28 0.28 0.28 0.27 0.26 0.25 0.23 0.22 0.21 0.20 0.18 0.17 0.16 0.13 0.13 0.13 0.13 0.12
0.25 0.26 0.26 0.26 0.26 0.26 0.26 0.26 0.27 0.26 0.26 0.26 0.27 0.26 0.27 0.28 0.28 0.29 0.29 0.28 0.28 0.28 0.28 0.28 0.28 0.28 0.28 0.27 0.25 0.24 0.23 0.22 0.21 0.19 0.18 0.17 0.15 0.13 0.13 0.13 0.12 0.12
0.26 0.26 0.27 0.27 0.27 0.27 0.27 0.27 0.27 0.26 0.26 0.26 0.26 0.27 0.28 0.28 0.28 0.29 0.29 0.29 0.29 0.29 0.28 0.28 0.28 0.28 0.27 0.26 0.25 0.23 0.22 0.21 0.20 0.19 0.18 0.17 0.14 0.13 0.13 0.12 0.12 0.12
0.27 0.27 0.28 0.28 0.28 0.28 0.27 0.27 0.26 0.27 0.27 0.27 0.27 0.28 0.28 0.28 0.28 0.29 0.29 0.30 0.29 0.29 0.29 0.29 0.28 0.28 0.27 0.26 0.24 0.23 0.22 0.21 0.20 0.19 0.18 0.16 0.13 0.13 0.12 0.12 0.12 0.12
0.27 0.27 0.27 0.27 0.27 0.27 0.27 0.27 0.28 0.28 0.29 0.29 0.29 0.29 0.28 0.28 0.29 0.29 0.29 0.29 0.29 0.29 0.29 0.29 0.28 0.28 0.27 0.25 0.24 0.23 0.22 0.21 0.20 0.19 0.17 0.15 0.13 0.13 0.12 0.12 0.12 0.12
0.28 0.28 0.27 0.27 0.27 0.27 0.28 0.28 0.29 0.29 0.29 0.29 0.29 0.29 0.29 0.29 0.29 0.29 0.29 0.29 0.29 0.29 0.29 0.28 0.28 0.27 0.26 0.24 0.23 0.22 0.21 0.20 0.19 0.18 0.17 0.14 0.13 0.13 0.12 0.12 0.12 0.11
0.28 0.28 0.27 0.27 0.27 0.27 0.28 0.28 0.29 0.29 0.29 0.30 0.30 0.29 0.29 0.29 0.29 0.29 0.29 0.29 0.29 0.29 0.29 0.28 0.27 0.26 0.25 0.24 0.23 0.22 0.21 0.20 0.19 0.18 0.15 0.14 0.13 0.13 0.12 0.12 0.12 0.11
0.29 0.28 0.28 0.28 0.28 0.28 0.28 0.29 0.29 0.29 0.30 0.30 0.30 0.30 0.29 0.29 0.29 0.29 0.29 0.29 0.29 0.29 0.28 0.27 0.26 0.25 0.24 0.23 0.22 0.21 0.20 0.19 0.18 0.16 0.14 0.14 0.13 0.13 0.12 0.12 0.11 0.11
0.30 0.30 0.29 0.29 0.29 0.29 0.29 0.30 0.30 0.30 0.30 0.30 0.30 0.29 0.30 0.30 0.30 0.30 0.30 0.29 0.28 0.28 0.27 0.26 0.25 0.24 0.23 0.22 0.21 0.21 0.20 0.19 0.17 0.14 0.14 0.13 0.13 0.12 0.12 0.12 0.11 0.11
0.31 0.31 0.30 0.30 0.30 0.30 0.30 0.30 0.30 0.30 0.30 0.30 0.30 0.30 0.30 0.30 0.30 0.29 0.28 0.28 0.27 0.27 0.26 0.25 0.24 0.24 0.23 0.22 0.21 0.20 0.19 0.17 0.15 0.14 0.13 0.13 0.12 0.12 0.11 0.11 0.11 0.10
0.31 0.31 0.30 0.30 0.30 0.30 0.30 0.30 0.30 0.30 0.30 0.30 0.30 0.30 0.30 0.29 0.29 0.28 0.28 0.27 0.26 0.26 0.25 0.24 0.24 0.23 0.22 0.21 0.20 0.19 0.17 0.15 0.14 0.13 0.13 0.12 0.12 0.11 0.10 0.10 0.10 0.10
0.31 0.30 0.30 0.30 0.30 0.30 0.30 0.30 0.30 0.30 0.30 0.29 0.29 0.29 0.28 0.28 0.28 0.27 0.27 0.26 0.25 0.25 0.24 0.23 0.23 0.22 0.22 0.21 0.20 0.18 0.15 0.14 0.14 0.13 0.12 0.12 0.11 0.10 0.10 0.10 0.10 0.10
0.30 0.30 0.30 0.30 0.30 0.30 0.30 0.30 0.30 0.29 0.29 0.28 0.28 0.28 0.28 0.28 0.27 0.26 0.26 0.25 0.25 0.24 0.23 0.22 0.22 0.22 0.21 0.20 0.18 0.16 0.16 0.15 0.14 0.12 0.12 0.11 0.10 0.10 0.09 0.09 0.09 0.09
0.30 0.30 0.30 0.30 0.30 0.30 0.30 0.29 0.29 0.28 0.28 0.28 0.27 0.27 0.27 0.26 0.26 0.25 0.25 0.24 0.23 0.23 0.22 0.22 0.21 0.20 0.19 0.17 0.16 0.16 0.16 0.16 0.14 0.14 0.13 0.12 0.11 0.10 0.10 0.10 0.10 0.10
0.30 0.30 0.30 0.30 0.30 0.29 0.29 0.28 0.28 0.28 0.28 0.27 0.27 0.26 0.25 0.25 0.25 0.24 0.24 0.23 0.22 0.22 0.21 0.21 0.20 0.18 0.17 0.16 0.16 0.16 0.15 0.15 0.14 0.13 0.13 0.12 0.12 0.12 0.11 0.11 0.11 0.10
0.30 0.29 0.29 0.29 0.29 0.28 0.28 0.28 0.28 0.27 0.26 0.26 0.25 0.25 0.24 0.24 0.24 0.23 0.22 0.22 0.21 0.21 0.20 0.19 0.17 0.16 0.15 0.15 0.15 0.15 0.14 0.14 0.13 0.13 0.13 0.12 0.12 0.12 0.12 0.12 0.11 0.11
0.29 0.29 0.28 0.28 0.28 0.28 0.27 0.27 0.26 0.26 0.25 0.25 0.24 0.24 0.24 0.23 0.23 0.22 0.21 0.20 0.20 0.19 0.18 0.16 0.15 0.14 0.14 0.14 0.14 0.13 0.13 0.13 0.12 0.12 0.12 0.12 0.12 0.12 0.12 0.12 0.12 0.12
0.29 0.28 0.28 0.28 0.27 0.27 0.26 0.25 0.25 0.24 0.24 0.24 0.23 0.23 0.22 0.22 0.21 0.21 0.20 0.19 0.18 0.17 0.15 0.14 0.14 0.14 0.13 0.13 0.12 0.12 0.12 0.12 0.12 0.11 0.11 0.11 0.11 0.11 0.11 0.11 0.11 0.11
0.28 0.28 0.27 0.27 0.26 0.25 0.24 0.24 0.24 0.24 0.23 0.23 0.22 0.22 0.21 0.20 0.20 0.19 0.19 0.18 0.16 0.14 0.14 0.13 0.13 0.12 0.12 0.12 0.12 0.12 0.12 0.12 0.11 0.11 0.11 0.11 0.11 0.11 0.11 0.11 0.11 0.11
0.28 0.27 0.26 0.25 0.25 0.24 0.24 0.23 0.23 0.22 0.22 0.22 0.21 0.20 0.20 0.19 0.19 0.18 0.16 0.15 0.14 0.14 0.14 0.13 0.12 0.11 0.10 0.10 0.11 0.11 0.12 0.12 0.11 0.11 0.10 0.10 0.10 0.10 0.10 0.10 0.10 0.10
0.26 0.26 0.25 0.25 0.24 0.24 0.23 0.22 0.22 0.21 0.21 0.20 0.20 0.19 0.19 0.18 0.17 0.15 0.14 0.14 0.14 0.13 0.13 0.12 0.11 0.10 0.10 0.10 0.10 0.11 0.11 0.11 0.11 0.10 0.10 0.10 0.10 0.10 0.09 0.10 0.10 0.10
Wind_Speed
46 46 47 47 48 48 48 49 49 50 50 50 50 50 50 51 51 50 50 50 49 49 49 48 48 47 47 47 47 47 47 47 47 47 48 48 48 48 48 49 49 49
46 47 47 48 48 49 49 50 50 50 51 51 51 51 51 51 51 51 51 50 50 50 49 48 48 48 47 47 47 47 47 47 48 48 48 48 48 49 49 49 49 49
46 47 47 48 49 49 50 50 51 51 51 51 52 52 52 52 52 52 52 51 50 50 49 49 48 48 48 48 48 48 48 48 48 48 49 49 49 49 49 49 50 49
46 46 47 48 49 49 50 50 51 51 51 52 52 52 52 52 52 52 52 51 50 50 49 49 49 49 48 48 48 48 48 48 49 49 49 49 49 49 49 49 50 49
46 46 47 47 48 49 49 50 51 51 52 52 52 52 52 52 52 52 52 51 50 50 49 49 49 49 49 49 49 49 49 49 49 49 49 50 49 49 49 50 49 49
45 46 46 47 47 48 48 50 50 51 52 52 52 52 52 52 52 52 52 51 50 50 49 49 49 49 49 49 49 49 49 49 49 49 50 50 50 50 50 50 49 49
46 46 46 46 47 47 48 49 50 50 51 51 51 52 52 52 52 52 52 52 51 50 50 50 50 49 49 49 49 49 49 49 49 50 50 50 50 50 50 49 49 49
46 46 46 46 46 47 48 48 49 49 50 50 51 51 52 52 52 52 52 52 51 51 51 51 50 50 50 50 49 49 50 50 50 50 50 50 50 50 50 49 49 48
46 46 46 46 46 47 47 47 48 49 49 50 50 51 52 52 52 52 52 52 52 52 51 51 51 50 50 49 49 50 50 50 50 50 50 50 50 50 49 49 48 48
46 46 46 46 46 46 47 47 48 48 49 50 50 50 51 52 52 52 52 52 51 51 51 51 50 50 49 49 50 50 50 50 50 50 50 51 50 49 49 48 48 48
46 46 46 46 46 46 47 47 47 48 49 49 49 50 50 50 51 51 51 51 51 51 50 50 49 49 49 49 50 50 50 50 50 50 50 50 50 49 48 48 48 48
46 46 46 46 46 46 47 47 47 48 49 49 49 49 49 49 49 49 50 50 50 49 49 49 48 49 49 49 49 49 49 50 50 50 50 49 49 49 48 48 48 49
46 46 46 46 46 47 47 47 47 48 48 49 49 49 48 48 48 48 48 48 48 48 48 48 48 48 48 48 48 49 49 50 50 50 49 49 48 48 48 48 49 49
46 46 46 46 46 47 47 47 47 47 48 48 48 48 47 47 47 47 47 47 47 47 47 47 47 47 47 48 48 48 49 49 49 49 48 48 48 48 48 48 49 49
45 45 46 46 46 47 47 47 47 47 47 47 47 47 46 46 46 46 46 46 46 46 46 46 47 47 47 47 48 48 49 49 48 48 47 47 47 47 48 48 49 50
45 45 46 46 46 46 46 46 46 46 46 46 46 45 45 45 45 45 45 45 45 45 46 46 46 47 47 47 48 48 48 48 47 47 47 47 47 47 48 49 49 50
45 45 45 46 46 46 46 46 46 46 46 45 45 44 44 44 44 44 45 45 45 45 45 45 46 46 47 47 48 48 47 47 47 47 47 47 47 48 48 49 50 51
45 45 45 45 46 45 45 45 45 45 44 44 43 43 43 44 44 44 44 44 44 44 44 45 45 46 46 47 47 47 46 46 46 46 47 47 48 48 49 50 50 51
45 45 45 45 45 45 44 44 44 44 43 43 43 43 43 43 43 43 43 43 43 43 44 45 45 45 46 46 46 46 46 46 45 46 46 47 47 48 49 50 50 51
44 44 44 44 44 44 44 44 43 43 43 43 42 42 42 42 42 42 42 42 42 43 44 44 44 45 45 45 45 45 46 46 46 46 46 47 47 48 49 49 50 51
43 43 43 43 43 43 43 43 42 42 42 42 42 41 41 41 41 41 41 42 42 43 43 44 44 44 44 44 45 45 45 46 46 46 47 47 47 48 49 49 50 50
43 43 43 43 43 43 42 42 42 42 41 41 41 40 40 40 41 41 41 42 42 43 43 43 43 43 44 44 44 45 45 46 46 46 47 47 48 48 49 49 49 49
43 43 43 43 42 42 41 41 41 41 40 40 40 40 40 40 40 41 41 42 42 42 42 42 42 43 43 44 44 45 45 45 46 46 47 48 48 48 49 49 49 50
42 42 42 42 41 41 41 40 40 40 40 40 39 39 40 40 40 41 41 41 41 41 41 42 42 42 43 43 44 45 45 45 46 46 47 47 48 48 48 49 50 50
42 42 41 41 40 40 40 39 39 39 39 39 39 39 40 40 41 41 41 41 41 41 41 42 42 42 43 43 44 45 45 46 46 46 47 47 48 48 49 49 49 50
41 41 40 39 39 39 39 39 39 38 38 38 39 40 40 40 40 40 40 40 40 40 40 41 41 41 42 44 44 45 46 46 46 47 47 47 48 48 48 49 49 49
Wind_Direction
278 278 278 277 277 277 276 275 275 275 275 276 276 276 276 276 276 276 276 276 276 276 277 277 278 278 279 280 281 282 284 285 286 286 286 286 286 285 285 285 286 286
280 279 279 278 278 277 276 276 275 275 275 276 276 276 276 276 276 275 276 276 276 276 276 276 277 277 279 280 281 282 284 285 285 286 286 286 286 285 285 285 285 285
281 280 279 279 279 278 277 277 276 275 276 276 276 276 276 276 275 275 275 275 276 276 275 276 276 277 278 279 280 282 283 284 285 286 286 286 286 285 285 285 285 285
281 281 280 280 280 280 279 278 277 276 276 276 276 275 276 275 275 275 275 275 275 275 275 275 275 276 277 279 280 281 282 283 284 285 286 286 285 285 285 285 285 284
282 282 281 281 281 281 280 279 278 277 276 276 276 275 275 275 274 274 274 274 274 275 275 275 275 276 277 278 279 280 281 283 284 285 285 285 285 285 285 285 285 284
283 282 282 282 282 282 281 280 279 278 277 277 276 275 275 274 274 273 273 273 274 274 274 275 275 276 277 278 279 279 281 282 284 284 285 285 285 284 285 285 284 283
284 283 282 282 282 282 282 282 280 279 278 277 276 276 275 274 274 273 272 272 273 273 273 274 274 275 276 277 278 279 280 282 284 284 284 284 284 284 284 284 283 282
285 284 283 283 282 282 282 282 282 280 279 278 277 276 275 274 274 273 272 271 271 272 272 273 274 274 275 276 277 278 280 282 283 284 284 284 284 283 283 283 282 282
285 285 284 283 283 283 283 283 282 281 280 278 277 277 276 275 274 273 272 271 271 271 272 272 273 274 274 275 276 278 280 282 283 283 283 283 283 283 283 282 282 282
286 285 284 284 284 284 284 284 283 282 281 279 278 277 276 275 274 273 272 271 271 271 271 272 272 273 273 274 276 278 279 281 282 282 283 283 283 282 282 282 282 282
286 285 285 285 285 285 285 285 284 283 282 281 279 278 277 276 274 273 272 271 271 271 271 271 271 271 272 274 276 278 280 281 282 282 282 282 282 282 282 282 282 282
286 286 286 285 285 286 286 285 284 283 282 281 280 279 278 276 275 274 273 272 272 271 271 270 270 271 272 274 276 278 280 280 281 281 282 282 282 282 281 282 282 283
287 287 287 286 286 287 287 286 285 284 283 282 281 279 278 277 275 274 274 273 272 271 271 271 271 272 274 276 277 278 279 280 281 281 281 281 281 281 282 282 283 283
288 288 287 287 287 287 287 286 285 284 283 283 281 280 278 277 276 275 274 273 273 272 272 272 272 273 275 276 277 278 279 280 280 281 281 281 281 281 282 283 283 284
289 289 288 288 288 288 288 287 286 285 284 283 281 280 279 277 276 275 275 274 273 273 272 272 273 274 275 276 277 278 279 280 280 280 281 281 281 282 282 283 284 284
290 290 289 289 289 289 288 287 286 285 284 283 281 280 279 278 277 276 275 274 273 273 273 273 274 275 275 275 277 278 279 279 280 280 280 281 281 282 283 283 284 285
291 290 290 290 289 289 288 287 286 285 284 283 281 280 279 278 277 276 276 274 273 273 273 274 275 275 275 276 277 278 279 279 280 280 280 281 281 282 283 284 285 285
291 291 291 290 289 289 288 287 287 286 284 283 282 280 280 279 278 277 276 275 274 274 274 275 276 276 276 276 277 277 278 279 280 280 281 281 282 283 284 284 285 286
292 291 291 290 290 289 288 288 287 285 284 283 282 281 281 280 278 277 276 276 275 275 275 276 277 276 276 277 277 277 278 279 280 281 281 282 283 284 284 285 286 286
292 292 291 291 290 290 289 288 287 286 284 284 283 282 281 279 278 277 277 277 277 277 277 277 278 277 276 277 278 278 278 279 280 281 282 283 284 284 285 286 286 286
293 292 292 291 291 290 289 288 287 286 285 284 283 282 280 279 278 278 278 278 278 278 278 278 278 277 277 278 278 278 279 279 281 282 283 284 284 285 285 286 286 286
293 293 293 292 291 290 289 288 287 286 285 284 283 282 281 280 279 279 279 279 279 278 278 279 278 278 278 278 278 279 279 280 281 282 283 284 285 285 286 286 286 287
294 294 293 292 291 290 289 288 287 286 285 284 283 282 281 281 281 280 280 280 279 279 279 279 279 278 278 278 279 279 280 281 282 283 284 284 285 286 286 286 287 287
295 294 293 292 291 290 289 288 288 287 285 284 284 283 283 283 282 282 281 281 280 279 279 279 280 279 279 279 279 279 280 282 283 284 284 285 286 286 286 287 287 287
295 294 293 292 291 291 290 289 288 287 286 286 285 285 285 284 283 283 282 281 280 280 280 280 280 280 279 279 280 280 281 282 283 284 285 285 286 286 287 288 288 288
296 294 293 293 292 292 290 289 288 288 287 287 286 286 286 285 284 283 282 281 281 281 281 281 281 281 281 280 281 281 282 283 284 284 285 285 286 286 287 288 288 289